Regional Weather Roundup
Issued by NWS

Home | Current Version | Previous Version | Text Only | Print | Product List | Glossary Off
Versions: 1 2 3 4 5 6 7 8 9 10 11 12 13 14 15 16 17 18 19 20 21 22 23 24 25 26 27 28 29 30 31 32 33 34 35 36 37 38 39 40 41 42 43 44 45 46 47 48 49 50

000
ASUS43 KBIS 011210
RWRND

NORTH DAKOTA REGIONAL WEATHER ROUNDUP
NATIONAL WEATHER SERVICE BISMARCK ND
700 AM CDT WED OCT 01 2014

NOTE: "FAIR" INDICATES FEW OR NO CLOUDS BELOW 12,000 FEET WITH NO
SIGNIFICANT WEATHER AND/OR OBSTRUCTIONS TO VISIBILITY.


NDZ001>003-009>011-017-011300-
NORTHWEST NORTH DAKOTA

CITY           SKY/WX    TMP DP  RH WIND       PRES   REMARKS
WILLISTON      CLOUDY    54  49  83 W20       29.57R
6HR MIN TEMP:  52; 6HR MAX TEMP:  55; 6HR PCP:  0.03;

MINOT          CLOUDY    53  51  93 SW8       29.47R
MINOT AFB      CLOUDY    52  52 100 W5        29.46S
$$

NDZ018>021-031>035-040>046-011300-
SOUTHWEST NORTH DAKOTA

CITY           SKY/WX    TMP DP  RH WIND       PRES   REMARKS
BISMARCK       MOCLDY    57  53  86 W15       29.59R
6HR MIN TEMP:  53; 6HR MAX TEMP:  57;

DICKINSON      CLOUDY    52  48  86 W20       29.63R
GARRISON         N/A     54  52  93 W17       29.53R
6HR MIN TEMP:  51; 6HR MAX TEMP:  55; 6HR PCP:  0.01;

HETTINGER ARPT CLOUDY    52  50  93 W14       29.69R
$$

NDZ004>008-012>016-024-026-027-054-011300-
NORTHEAST NORTH DAKOTA

CITY           SKY/WX    TMP DP  RH WIND       PRES   REMARKS
GRAND FORKS    CLOUDY    60  53  77 SW12G21   29.55R
GRND FRKS AFB  CLOUDY    58  54  86 SW14      29.54R
DEVILS LAKE    CLOUDY    55  46  71 SW16      29.50R
$$

NDZ022-023-025-028>030-036>039-047>053-011300-
SOUTHEAST NORTH DAKOTA

CITY           SKY/WX    TMP DP  RH WIND       PRES   REMARKS
FARGO          CLEAR     59  55  87 S14       29.62R
6HR MIN TEMP:  59; 6HR MAX TEMP:  63; 6HR PCP: TRACE;

JAMESTOWN      PTCLDY    55  51  86 SW13      29.58R
$$




USA.gov is the U.S. government's official web portal to all federal, state and local government web resources and services.